Regional Weather Roundup
Issued by NWS Albany, NY

Home | Current Version | Previous Version | Graphics & Text | Print | Product List | Glossary Off
Versions: 1 2 3 4 5 6 7 8 9 10 11 12 13 14 15 16 17 18 19 20 21 22 23 24 25 26 27 28 29 30 31 32 33 34 35 36 37 38 39 40 41 42 43 44 45 46 47 48 49 50

000
ASUS41 KALY 030210
RWRALY

NEW YORK STATE HOURLY WEATHER ROUNDUP
NATIONAL WEATHER SERVICE ALBANY NY
1000 PM EDT SAT MAY 02 2015

NOTE: "FAIR" INDICATES FEW OR NO CLOUDS BELOW 12,000 FEET WITH NO
SIGNIFICANT WEATHER AND/OR NO OBSTRUCTIONS TO VISIBILITY.

NYZ032-033-038>043-046>054-057>066-NYZ062>081-030300-
EAST


CITY           SKY/WX    TMP DP  RH WIND       PRES   REMARKS
ALBANY         PTCLDY    66  33  29 W15       29.94R
GLENS FALLS    MOCLDY    65  36  34 NW6       29.92R
POUGHKEEPSIE   MOCLDY    59  43  55 VRB7      29.98R
MONTGOMERY     MOCLDY    58  43  57 S5        29.98R
WHITE PLAINS   PTCLDY    48  38  68 S3        30.02R
ISLIP          PTCLDY    47  39  74 S6        30.03R
NEW YORK CITY  MOCLDY    51  39  63 S9        30.03R
CENTRAL PARK   PTCLDY    52  36  54 S7        30.06R
$$

NYZ005>009-017-018-044>046-055-056-030300-
CENTRAL


CITY           SKY/WX    TMP DP  RH WIND       PRES   REMARKS
FULTON         FAIR      56  36  47 CALM      29.99R
SYRACUSE       PTCLDY    57  41  55 CALM      29.98S
ROME           CLEAR     56  36  47 CALM      30.01R
ELMIRA         CLEAR     51  37  58 CALM      30.01R
BINGHAMTON     PTCLDY    57  33  40 N6        30.01R
MONTICELLO     PTCLDY    57  32  38 NW6       30.01R
$$

NYZ026>034-041>043-030300-
NORTH


CITY           SKY/WX    TMP DP  RH WIND       PRES   REMARKS
WATERTOWN      CLEAR     55  35  47 SW7       29.97R
FORT DRUM      NOT AVBL
MASSENA        CLEAR     58  39  49 SW9       29.93R
SARANAC LAKE   CLEAR     45  33  63 CALM      29.96R
PLATTSBURGH    PTCLDY    57  41  55 SW7       29.92R
$$

NYZ001>004-010>016-019>021-030300-
WEST


CITY           SKY/WX    TMP DP  RH WIND       PRES   REMARKS
NIAGARA FALLS  PTCLDY    54  34  46 SW9       30.00R
BUFFALO        PTCLDY    52  34  50 SW10      30.01S
DUNKIRK        CLEAR     48  40  73 CALM      30.03R
JAMESTOWN      CLEAR     61  32  33 SW6       30.06R
WELLSVILLE     CLEAR     53  26  35 W9        30.06R
ROCHESTER      CLEAR     62  38  40 W6        30.00R
PENN YAN       CLEAR     49  42  77 S3        30.01R
$$

             KEY
       WCI = WIND CHILL INDEX
       VSB = VISIBILITY
       HX  = HEAT INDEX
$$



USA.gov is the U.S. government's official web portal to all federal, state and local government web resources and services.